Location: Cluj-Napoca
(46.7712°N, 23.6236°E)
Time: 11:36:42
(UTC+03:00)

ISS - Pass Details

Date: 05 May 2021
Orbit: 417 x 422 km, 51.6° (Epoch: 15 May)

Event Time Altitude Azimuth Distance (km) Brightness Sun altitude
Exits shadow 03:01:13 31° 81° (E) 760 -2.2 -23.1°
Drops below altitude 10° 03:03:12 10° 69° (ENE) 1,506 -0.3 -23.0°
Sets 03:05:19 0° 65° (ENE) 2,374 0.9 -22.8°
